EW0605 Weather Reports


time (UTC)temp
C
wind
direction
speed
KPH
gust
KPH
rain 1hr
cm
rain 24hr
cm
rain mn
cm
humidity
%
barometer
mb
20260510201519 8 357 16.1 25.7 0.00 0.00 0.00 49 1022.0
20260510200018 8 301 6.4 17.7 0.00 0.00 0.00 48 1021.8
20260510194516 8 311 9.7 19.3 0.00 0.00 0.00 50 1021.7
20260510193017 8 307 8.0 29.0 0.00 0.00 0.00 46 1021.6
20260510191513 8 20 14.5 29.0 0.00 0.00 0.00 49 1021.6
20260510190011 8 335 8.0 19.3 0.00 0.00 0.00 52 1021.6
20260510184510 7 324 8.0 20.9 0.00 0.00 0.00 49 1021.7
20260510183008 7 4 12.9 22.5 0.00 0.00 0.00 53 1021.5
20260510181505 7 335 12.9 24.1 0.00 0.00 0.00 52 1021.2
20260510180007 7 291 11.3 25.7 0.00 0.00 0.00 53 1021.3
20260510174504 7 322 9.7 25.7 0.00 0.00 0.00 55 1021.1
20260510173100 6 327 11.3 22.5 0.00 0.00 0.00 56 1020.9
20260510171604 7 349 8.0 30.6 0.00 0.00 0.00 56 1020.9
20260510170059 6 23 9.7 22.5 0.00 0.00 0.00 56 1021.0
20260510164558 6 330 11.3 20.9 0.00 0.00 0.00 55 1021.1
20260510163100 6 314 9.7 19.3 0.00 0.00 0.00 55 1020.9
20260510161554 6 24 9.7 14.5 0.00 0.00 0.00 59 1020.7
20260510160057 6 41 8.0 16.1 0.00 0.00 0.00 58 1020.4
20260510154555 6 357 11.3 17.7 0.00 0.00 0.00 59 1020.3
20260510153051 6 346 11.3 25.7 0.00 0.00 0.00 62 1020.2
20260510151550 5 328 11.3 20.9 0.00 0.00 0.00 62 1020.1
20260510150047 6 337 12.9 25.7 0.00 0.00 0.00 65 1019.9
20260510144547 5 312 8.0 24.1 0.00 0.00 0.00 68 1019.8
20260510143050 5 286 11.3 22.5 0.00 0.00 0.00 67 1019.6
20260510141542 5 345 9.7 20.9 0.00 0.00 0.00 69 1019.5
20260510140040 5 307 9.7 22.5 0.00 0.00 0.00 70 1019.2
20260510134543 5 319 12.9 19.3 0.00 0.00 0.00 69 1019.2
20260510133038 4 299 11.3 22.5 0.00 0.00 0.00 71 1019.2
20260510131535 4 271 9.7 19.3 0.00 0.00 0.00 71 1018.9
20260510130034 4 329 9.7 17.7 0.00 0.00 0.00 72 1018.8
20260510124533 4 312 8.0 24.1 0.00 0.00 0.00 74 1018.5
20260510123030 3 319 11.3 20.9 0.00 0.00 0.00 73 1018.3
20260510121529 3 293 9.7 22.5 0.00 0.00 0.00 74 1018.1
20260510120027 3 304 8.0 22.5 0.00 0.00 0.00 75 1017.8
20260510114529 2 293 11.3 17.7 0.00 0.00 0.00 77 1017.7
20260510113022 2 304 4.8 11.3 0.00 0.00 0.00 78 1017.6
20260510111520 2 288 3.2 8.0 0.00 0.00 0.00 78 1017.4
20260510110017 2 285 4.8 8.0 0.00 0.00 0.00 77 1017.1
20260510104514 2 293 3.2 9.7 0.00 0.00 0.00 75 1016.8
20260510103011 2 278 8.0 12.9 0.00 0.00 0.00 74 1016.6
20260510101511 2 304 4.8 11.3 0.00 0.00 0.00 74 1016.3
20260510100007 3 276 6.4 11.3 0.00 0.00 0.00 72 1016.1
20260510094505 3 281 6.4 14.5 0.00 0.00 0.00 72 1015.9
20260510093003 3 271 1.6 8.0 0.00 0.00 0.00 72 1015.7
20260510091559 3 300 1.6 8.0 0.00 0.00 0.00 71 1015.4
20260510090056 3 290 1.6 8.0 0.00 0.00 0.00 69 1015.4
20260510084553 3 270 0.0 9.7 0.00 0.00 0.00 68 1015.1
20260510083054 3 305 3.2 6.4 0.00 0.00 0.00 67 1015.0
20260510081549 4 266 1.6 8.0 0.00 0.00 0.00 65 1014.9
20260510080044 4 267 0.0 3.2 0.00 0.00 0.00 64 1014.9
20260510074541 5 293 1.6 8.0 0.00 0.00 0.00 61 1014.7
20260510073038 5 226 0.0 6.4 0.00 0.00 0.00 59 1014.6
20260510071545 5 245 0.0 4.8 0.00 0.00 0.00 59 1014.5
20260510070034 5 255 0.0 4.8 0.00 0.00 0.00 58 1014.5
20260510064533 5 282 0.0 1.6 0.00 0.00 0.00 57 1014.4
20260510063031 5 275 0.0 3.2 0.00 0.00 0.00 56 1014.3
20260510061540 6 252 0.0 4.8 0.00 0.00 0.00 55 1014.3
20260510060030 6 281 0.0 8.0 0.00 0.00 0.00 54 1014.3
20260510054527 6 300 8.0 17.7 0.00 0.00 0.00 53 1014.1
20260510053022 6 259 0.0 4.8 0.00 0.00 0.00 53 1014.0
20260510051521 6 214 0.0 4.8 0.00 0.00 0.00 54 1013.9
20260510050023 5 274 0.0 3.2 0.00 0.00 0.00 55 1013.8
20260510044518 5 243 0.0 4.8 0.00 0.00 0.00 59 1013.7
20260510043021 5 215 0.0 4.8 0.00 0.00 0.00 59 1013.7
20260510041516 4 210 0.0 3.2 0.00 0.00 0.00 63 1013.6
20260510040116 3 186 0.0 1.6 0.00 0.00 0.00 64 1013.6
20260510034514 3 218 0.0 1.6 0.00 0.00 0.00 65 1013.6
20260510033024 3 188 0.0 0.0 0.00 0.00 0.00 65 1013.5
20260510031520 4 186 0.0 0.0 0.00 0.00 0.00 63 1013.3
20260510030006 5 285 0.0 1.6 0.00 0.00 0.00 60 1013.2
20260510024501 5 246 0.0 3.2 0.00 0.00 0.00 56 1013.1
20260510023056 6 276 0.0 4.8 0.00 0.00 0.00 53 1013.0
20260510021554 6 290 1.6 4.8 0.00 0.00 0.00 52 1012.8
20260510020052 6 290 0.0 1.6 0.00 0.00 0.00 52 1012.5
20260510014549 7 8 0.0 3.2 0.00 0.00 0.00 51 1012.3
20260510013051 7 12 0.0 3.2 0.00 0.00 0.00 49 1011.9
20260510011644 7 349 1.6 6.4 0.00 0.00 0.00 48 1011.6
20260510010043 8 4 6.4 14.5 0.00 0.00 0.00 45 1011.3
20260510004545 8 358 8.0 17.7 0.00 0.00 0.00 43 1011.1
20260510003100 9 321 8.0 25.7 0.00 0.00 0.00 42 1010.9
20260510001540 10 355 11.3 29.0 0.00 0.00 0.00 39 1010.7
20260510000040 10 347 12.9 25.7 0.00 0.00 0.00 39 1010.4
20260509234536 10 21 19.3 29.0 0.00 0.00 0.00 39 1010.3
20260509233030 11 326 14.5 30.6 0.00 0.00 0.00 39 1010.0
20260509231532 11 333 12.9 27.4 0.00 0.00 0.00 38 1009.8
20260509230031 11 331 11.3 24.1 0.00 0.00 0.00 38 1009.6
20260509224525 11 300 9.7 22.5 0.00 0.00 0.00 38 1009.3
20260509223024 11 345 12.9 22.5 0.00 0.00 0.00 38 1009.1
20260509221519 12 4 16.1 22.5 0.00 0.00 0.00 35 1008.9
20260509220018 11 278 8.0 24.1 0.00 0.00 0.00 38 1008.7
20260509214518 11 338 11.3 27.4 0.00 0.00 0.00 39 1008.7
20260509213119 11 27 11.3 20.9 0.00 0.00 0.00 38 1008.7
20260509211515 11 311 8.0 19.3 0.00 0.00 0.00 39 1008.6
20260509210020 11 21 16.1 25.7 0.00 0.00 0.00 36 1008.5
20260509204513 11 356 16.1 25.7 0.00 0.00 0.00 38 1008.6
20260509203017 11 314 11.3 27.4 0.00 0.00 0.00 38 1008.4